Regional Weather Roundup
Issued by NWS Sterling, VA

Home | Current Version | Previous Version | Graphics & Text | Print | Product List | Glossary On
Versions: 1 2 3 4 5 6 7 8 9 10 11 12 13 14 15 16 17 18 19 20 21 22 23 24 25 26 27 28 29 30 31 32 33 34 35 36 37 38 39 40 41 42 43 44 45 46 47 48 49 50
552
ASUS41 KLWX 242210
RWRLWX

REGIONAL WEATHER ROUNDUP
NATIONAL WEATHER SERVICE BALTIMORE MD/WASHINGTON DC
600 PM EDT TUE MAY 24 2016

Note: "FAIR" indicates few or no clouds below 12,000 feet
with no significant weather and/or obstructions to visibility.
 TC=TEMPERATURE CELSIUS

 * =Non NWS site. Station does not report precipitation (e.g. rain,
    snow, etc.), thunder, or fog.

DCZ001-MDZ009-015-VAZ040>042-051-053>054-242300-
WASHINGTON METRO

CITY           SKY/WX    TMP DP  RH WIND       PRES   REMARKS
WASHINGTON NAT PTSUNNY   83  49  30 W13       29.98S
DULLES         FAIR      82  48  30 W15       29.98F
QUANTICO       FAIR      83  50  31 NW7       29.99F
COLLEGE PARK*  FAIR      81  46  30 W6G18     29.97F
LEESBURG*      FAIR      82  52  34 NW14G22   30.00S
MANASSAS*      SUNNY     82  48  30 NW8       29.99S

$$

MDZ006>007-011-014-242300-
BALTIMORE METRO

CITY           SKY/WX    TMP DP  RH WIND       PRES   REMARKS
BWI AIRPORT    PTSUNNY   79  50  36 W8        29.96S
MD SCIENCE CTR   N/A     83  47  28 MISG      29.94F
MARTIN STATE   MOSUNNY   82  52  34 W9        29.96S
ANNAPOLIS      SUNNY     81  48  31 VRB7      29.96S
FORT MEADE*    SUNNY     79  48  34 NW8       29.99F

$$

MDZ012-015-019>023-242300-
MARYLAND EASTERN SHORE

CITY           SKY/WX    TMP DP  RH WIND       PRES   REMARKS
OCEAN CITY     SUNNY     70  58  65 S9        29.99R
SALISBURY      SUNNY     79  54  41 SW12      29.98S
BAY BRIDGE AP* MOSUNNY   79  54  41 W9        29.97S
CAMBRIDGE*     MOSUNNY   77  50  38 W6        29.98S
EASTON*        MOSUNNY   81  59  47 W5        30.01S

$$

MDZ017>025-242300-
SOUTHERN MARYLAND

CITY           SKY/WX    TMP DP  RH WIND       PRES   REMARKS
PATUXENT RIVER PTSUNNY   81  49  32 W13       29.99R
ST INIGOES     SUNNY     78  54  43 SW8       29.99S
LEONARDTOWN*   NOT AVBL

$$

MDZ003>005-242300-
NORTH CENTRAL MARYLAND

CITY           SKY/WX    TMP DP  RH WIND       PRES   REMARKS
FREDERICK*     MOSUNNY   82  50  32 NW12G20   30.01R
HAGERSTOWN APT SUNNY     80  46  30 NW14      29.99S
WESTMINSTER*   MOSUNNY   82  75  78 NW9G18    29.99R

$$

MDZ501>502-242300-
WESTERN MARYLAND

CITY           SKY/WX    TMP DP  RH WIND       PRES   REMARKS
OAKLAND*       NOT AVBL
CUMBERLAND*    SUNNY     81  45  28 NW13      30.06S

$$

VAZ025>031-242300-
SHENANDOAH VALLEY

CITY           SKY/WX    TMP DP  RH WIND       PRES   REMARKS
WINCHESTER*    FAIR      81  48  32 W14       30.01S
FRONT ROYAL*   FAIR      79  50  36 NW3       30.01S
LURAY*         FAIR      81  46  30 NW7G16    30.03S
NEW MARKET*    FAIR      80  49  33 NW7       30.01S
STAUNTON*      FAIR      79  48  34 NW6       30.06S
WAYNESBORO*    FAIR      79  46  31 W5        30.05F

$$

WVZ021-048>050-054>055-242300-
EASTERN WEST VIRGINIA PANHANDLE

CITY           SKY/WX    TMP DP  RH WIND       PRES   REMARKS
MARTINSBURG    FAIR      81  46  29 NW10      29.99S
PETERSBURG*    FAIR      80  53  39 W10G17    30.05F

$$

VAZ036>039-050-242300-
CENTRAL FOOTHILLS

CITY           SKY/WX    TMP DP  RH WIND       PRES   REMARKS
CHARLOTTESVILL FAIR      80  54  40 SW5       30.01F
CULPEPER*      FAIR      83  49  31 NW6       30.00F
ORANGE*        FAIR      81  52  36 CALM      30.02F
GORDONSVILLE*  MOCLDY    82  50  33 CALM      30.00S
WARRENTON*     FAIR      81  42  25 NW5       29.99F

$$

VAZ055>057-242300-
NORTH AND CENTRAL PIEDMONT

CITY           SKY/WX    TMP DP  RH WIND       PRES   REMARKS
FREDERICKSBRG* FAIR      82  54  36 CALM      29.99S
STAFFORD*      FAIR      82  49  31 W7        30.03S

$$

NCZ024-NYZ072-PAZ021-071-VAZ022-071-242300-
OTHER REGIONAL OBSERVATIONS

CITY           SKY/WX    TMP DP  RH WIND       PRES   REMARKS
NEW YORK CITY  CLOUDY    68  51  54 CALM      29.94F
PHILADELPHIA   PTSUNNY   82  41  23 W13       29.91S
PITTSBURGH     MOSUNNY   80  44  27 W13       30.04F
ROANOKE        FAIR      81  49  32 NW9       30.09F
RICHMOND       FAIR      82  50  32 W9        30.01S
RALEIGH        MOSUNNY   78  55  44 SW9       30.09R

$$

ANZ530>537-242300-
MARINE OBSERVATIONS

STATION/POSITION TIME  TEMP    WIND        PRES
                       AIR SEA DIR/SP/G
                 (UTC) (F)     (DEG/KT/KT) (MB)
THOMAS PT LIGHT  2200   80 63  290/ 13/ 14 1016.0F
BALT KEY BRIDGE  2100   79     270/ 12/ 14 1014.2R
COVE POINT       2100   73     170/  2/  4 1015.9F
LEWISETTA        2100   79 65  310/  6/  7 1015.6S
SOLOMONS ISLAND  2112   80 63  310/  4/  8   N/A
PINEY POINT      2100          290/  8/  9   N/A

$$





USA.gov is the U.S. government's official web portal to all federal, state and local government web resources and services.